Location: Palm Bay
(27.9400°N, 80.7200°W)
Time: 15:12:03
(UTC-05:00)

Daily predictions for brighter satellites

Satellite Brightness Start Highest point End
(mag) Time Altitude Azimuth Time Altitude Azimuth Time Altitude Azimuth
Cosmos 1515 Rocket 3.9 18:09:42 10° N 18:13:57 43° E 18:18:10 10° SSE
Cosmos 1674 4.2 18:11:04 10° SSW 18:14:39 40° W 18:18:16 10° N
SPOT 3 Rocket 3.6 18:09:41 10° SSE 18:14:49 87° WSW 18:20:00 10° NNW
MSX 3.8 18:09:22 10° SSE 18:15:03 78° ENE 18:20:46 10° N
Cosmos 1844 4.3 18:11:34 10° N 18:16:52 37° ENE 18:22:09 10° SE
SKYMED 2 3.6 18:12:58 10° NNE 18:17:18 71° E 18:21:37 10° S
Cosmos 1484 Rocket 3.0 18:14:42 10° SSE 18:18:26 49° ENE 18:22:14 10° N
COSMOS 2428 4.5 18:15:23 10° SW 18:20:25 32° WNW 18:25:30 10° N
Cosmos 1500 Rocket 3.6 18:17:02 10° S 18:21:21 88° WNW 18:25:41 10° N
Cosmos 1151 Rocket 3.6 18:19:39 10° NNE 18:23:35 35° E 18:27:31 10° SSE
SEDSat Delta rocket 3.5 18:18:01 10° WNW 18:23:49 75° NNE 18:28:47 10° E
Cosmos 2237 Rocket 2.2 18:18:15 10° SSW 18:23:49 77° ESE 18:29:27 10° NNE
Cosmos 1634 Rocket 4.0 18:18:05 10° N 18:24:08 57° E 18:30:10 10° SSE
GMS 1 Rocket B 4.2 18:23:02 10° W 18:27:15 84° N 18:31:11 10° E
Cosmos 1125 Rocket 4.2 18:23:05 10° N 18:27:38 30° ENE 18:32:10 10° SE
ALOS 4.1 18:27:14 10° E 18:28:17 11° ENE 18:29:20 10° NE
SL-16 R/B 3.0 18:23:41 10° SSE 18:28:33 31° ESE 18:33:25 10° NE
Cosmos 990 Rocket 4.2 18:23:26 10° NNW 18:28:41 78° WSW 18:33:55 10° S
Cosmos 44 3.7 18:24:06 10° SSW 18:29:26 77° WNW 18:34:37 10° NNE
IDEFIX/ARIANE 42P 4.0 18:26:03 10° S 18:30:57 43° W 18:35:53 10° NNW
BREEZE-M DEB (TANK) 2.8 18:27:12 10° NNW 18:32:10 38° NE 18:34:48 10° ESE
Cosmos 371 Rocket 4.4 18:32:51 10° SW 18:37:27 46° WNW 18:42:05 10° N
Sich 1 4.4 18:34:44 10° SE 18:38:00 20° E 18:40:51 12° NE
Cosmos 1300 2.9 18:34:19 10° N 18:38:02 47° E 18:41:43 10° SSE
NOSS 0 Rocket 4.4 18:32:29 10° SSW 18:38:40 64° WNW 18:44:50 10° NNE
Hubble Space Telescope 1.2 18:35:29 10° W 18:39:33 61° SSW 18:43:39 10° ESE
CZ-4 R/B 4.1 18:36:33 10° SSW 18:39:36 22° W 18:42:40 10° NW
Cosmos 1726 2.2 18:36:26 10° N 18:40:07 53° E 18:43:48 10° SSE
BREEZE-M DEB (TANK) 4.4 18:38:38 10° W 18:40:41 17° NW 18:42:25 10° N
Cosmos 1633 Rocket 4.4 18:37:56 10° SE 18:41:02 19° E 18:42:54 15° ENE
FREGAT/IRIS 3.8 18:43:59 10° SE 18:46:26 22° ENE 18:47:34 18° NE
OTV 4 2.4 18:47:03 10° NNW 18:48:52 15° N 18:49:25 14° NNE
Meteor 1-11 4.2 18:44:34 10° S 18:50:12 88° E 18:55:56 10° N
Resurs 01 Rocket4.118:54:23NNE18:54:23NNE18:46:46ESE
OAO 3 Rocket 3.1 18:50:04 10° WNW 18:54:57 80° NNE 18:58:32 18° ESE
Cosmos 1184 Rocket 4.3 18:54:39 10° SE 18:56:36 21° ESE 18:56:36 21° ESE
GPS 2-04 Rocket1 4.2 18:53:59 10° W 18:58:02 39° SSW 19:01:59 10° SE
Aureole 2 Rocket 3.0 18:56:53 10° SSW 19:00:16 60° WNW 19:04:00 10° N
Abrixas rocket 3.0 18:58:38 10° WNW 19:01:52 51° SW 19:05:06 10° SSE
Helios 1B rocket 3.9 19:02:54 19° ESE 19:02:54 19° ESE 19:05:07 10° SSE
Cosmos 1844 Rocket 3.4 18:57:49 10° NNW 19:03:20 58° WSW 19:08:49 10° S
Iridium 4 Rocket 4.1 19:00:52 10° SE 19:04:55 27° E 19:05:06 27° E
CZ-3A R/B 4.3 19:01:35 10° N 19:04:51 19° NE 19:04:51 19° NE
Cosmos 1461 2.8 19:03:45 10° SSW 19:08:02 84° ESE 19:10:31 24° NNE
Cosmos 1707 Rocket 4.0 19:05:16 10° NNE 19:09:13 35° E 19:13:10 10° SSE
SJ-6B 2.8 19:05:41 10° SSE 19:09:37 61° ENE 19:13:38 10° N
Cosmos 1666 Rocket 3.5 19:08:09 10° S 19:12:23 60° E 19:15:24 19° NNE
Intelsat 5-1 Rocket 2.5 19:13:36 10° WSW 19:16:24 47° S 19:18:34 27° ESE
Cosmos 2279 Rocket 4.0 19:10:14 10° N 19:16:28 88° W 19:22:42 10° S
Cosmos 2058 4.5 19:13:32 10° SSW 19:17:20 36° W 19:21:08 10° NNW
Milstar 3 3.0 19:11:54 10° W 19:18:29 73° SSW 19:23:49 22° ESE
Orbus 7S 4.0 19:16:06 10° W 19:20:50 50° SSW 19:21:30 40° SSE
FENGYUN 3A 3.8 19:16:13 10° SE 19:21:15 44° ENE 19:26:19 10° N
GPS 2-14 Rocket1 4.2 19:19:02 10° WSW 19:22:30 27° S 19:23:49 23° SSE
Cosmos 304 Rocket 4.4 19:18:42 10° SSW 19:23:25 56° WNW 19:28:08 10° N
Cosmos 2333 Rocket 4.5 19:19:45 10° WSW 19:23:57 21° WNW 19:28:10 10° NNW
Cosmos 1703 4.0 19:21:30 10° SSW 19:25:18 53° W 19:29:07 10° N
Cosmos 773 Rocket 3.9 19:23:58 10° S 19:28:59 60° ESE 19:30:21 45° NE
Nadezhda 4 Rocket 3.9 19:22:58 10° S 19:29:11 86° E 19:35:29 10° N
Atlas Centaur 2 2.9 19:27:50 10° W 19:32:02 32° SSW 19:33:48 22° SSE
Cosmos 1603 4.2 19:27:24 10° S 19:32:07 38° ESE 19:32:07 38° ESE
Fermi 4.2 19:34:18 10° W 19:38:18 52° S 19:38:29 52° S
Cosmos 372 Rocket 4.2 19:34:31 10° NNW 19:39:35 69° WSW 19:44:38 10° S
Cosmos 1356 Rocket 4.2 19:37:38 10° SSW 19:41:31 47° W 19:43:34 24° NNW
Cosmos 1092 Rocket 3.9 19:40:09 10° S 19:46:27 85° E 19:51:46 15° N
USA 215 3.1 19:45:32 34° SE 19:48:41 79° NE 19:55:15 10° NW
Cosmos 2278 Rocket 2.9 19:44:20 10° NNW 19:49:51 54° WSW 19:55:21 10° S
Cosmos 1626 4.0 19:47:27 10° SW 19:50:45 29° W 19:52:36 19° NW
Aureole 1 Rocket 3.6 19:54:01 10° SSW 19:58:27 70° WNW 19:59:15 60° NNW
ALOS 2.9 20:00:39 10° S 20:05:12 53° W 20:09:45 10° NNW
Haruka 4.4 20:00:37 10° WNW 20:05:48 74° N 20:09:16 49° ENE
BREEZE-M DEB (TANK) 3.4 20:04:56 10° SW 20:08:40 89° SE 20:08:59 82° NE
SEDSat Delta rocket 4.3 20:05:05 10° W 20:09:29 40° SW 20:09:29 40° SW
Timation 1 Rocket 4.3 20:04:19 10° NNW 20:10:21 79° WSW 20:10:30 78° SW
Spot 2 Rocket 4.0 20:05:38 10° S 20:10:35 56° W 20:15:32 10° NNW
SL-16 R/B 4.1 20:07:54 10° WSW 20:12:33 26° WNW 20:16:18 14° NNW
ATLAS 2A CENTAUR R/B 3.6 20:10:23 10° SW 20:11:10 19° SW 20:11:10 19° SW
Hubble Space Telescope 3.3 20:17:23 10° WSW 20:19:12 18° SW 20:19:12 18° SW
Resurs 01 Rocket 4.0 20:22:58 10° SSW 20:31:55 - NNW 20:24:21 18° SSW
USA 229 DEB 4.4 20:24:10 10° SW 20:30:42 47° WNW 20:31:47 44° NNW
USA 229 4.4 20:24:15 10° SW 20:30:48 48° WNW 20:31:49 45° NNW
H-2A ROCKET BODY 4.0 20:55:33 10° W 21:02:29 33° W 21:02:29 33° W
